Home   Weather   Durham   Past weeks

Flag for United Kingdom Past Weather in Durham, England, United Kingdom — Yesterday and Last 2 Weeks

54 °F

Passing clouds.

Feels Like: 50 °F
Forecast: 42 / 58 °F
Wind: 10 mph from Southwest

Location: Newcastle

Current Time: Oct 27, 2016 at 10:03:24 AM

Latest Report: Oct 27, 2016 at 9:20 AM

Visibility: N/A

Pressure: 30.18 "Hg

Humidity: 77%

Dew Point: 46 °F

Location of DurhamLocation

Past Weather in Durham — Graph


Durham Temperature Yesterday

Maximum temperature yesterday: 55 °F (at 10:50 AM)
Minimum temperature yesterday: 48 °F (at 12:20 AM)
Average temperature yesterday: 53 °F

High & Low Weather Summary for the Past Weeks

High59 °F (Oct 17, 1:50 PM)100% (Oct 12, 8:50 AM)30.33 "Hg (Oct 12, 8:50 AM)
Low39 °F (Oct 25, 12:50 AM)55% (Oct 17, 2:50 PM)29.65 "Hg (Oct 15, 7:20 AM)
Average49 °F91%30.03 "Hg
* Reported Oct 12 8:20 AM — Oct 27 8:50 AM, Durham, Weather by CustomWeather, © 2016

Note: Actual official high and low records may vary slightly from our data, if they occured in-between our weather recording intervals... More about our weather records


Durham Weather History for the Previous 24 Hours

Scroll right to see more
Time TempWeatherWind HumidityBarometerVisibility
8:50 AM
Thu, Oct 27
54 °FPassing clouds.9 mph77%30.18 "HgN/A
8:20 AM54 °FPassing clouds.10 mph77%30.18 "HgN/A
7:50 AM54 °FPassing clouds.8 mph77%30.18 "HgN/A
7:20 AM55 °FPassing clouds.10 mph72%30.21 "HgN/A
6:50 AM54 °FPassing clouds.10 mph77%30.21 "HgN/A
6:20 AM54 °FPassing clouds.8 mph82%30.21 "HgN/A
5:50 AM54 °FPassing clouds.9 mph82%30.21 "HgN/A
5:20 AM54 °FPassing clouds.13 mph82%30.24 "HgN/A
4:50 AM52 °FPassing clouds.6 mph82%30.21 "HgN/A
4:20 AM52 °FClear.3 mph88%30.21 "Hg10 mi
3:50 AM48 °FClear.2 mph87%30.21 "Hg10 mi
3:20 AM48 °FClear.3 mph87%30.24 "Hg10 mi
2:50 AM50 °FPassing clouds.7 mph88%30.24 "HgN/A
2:20 AM52 °FPassing clouds.6 mph82%30.24 "HgN/A
1:50 AM50 °FClear.7 mph88%30.24 "Hg10 mi
1:20 AM50 °FClear.7 mph88%30.24 "Hg10 mi
12:50 AM50 °FClear.10 mph88%30.24 "Hg10 mi
12:20 AM52 °FPassing clouds.8 mph88%30.27 "HgN/A
11:50 PM
Wed, Oct 26
52 °FPassing clouds.12 mph88%30.27 "HgN/A
11:20 PM52 °FPassing clouds.8 mph88%30.27 "HgN/A
10:50 PM54 °FPassing clouds.9 mph88%30.27 "HgN/A
10:20 PM54 °FPassing clouds.10 mph88%30.24 "HgN/A
9:50 PM52 °FPassing clouds.10 mph94%30.24 "HgN/A
9:20 PM54 °FPassing clouds.8 mph88%30.24 "HgN/A
8:50 PM54 °FPassing clouds.8 mph88%30.24 "HgN/A
8:20 PM54 °FPassing clouds.6 mph88%30.24 "HgN/A
7:50 PM54 °FPassing clouds.13 mph88%30.21 "HgN/A
7:20 PM54 °FPassing clouds.13 mph88%30.21 "HgN/A
6:50 PM54 °FPassing clouds.14 mph88%30.18 "HgN/A
5:50 PM55 °FPassing clouds.16 mph82%30.18 "HgN/A
5:20 PM55 °FPartly sunny.15 mph82%30.18 "HgN/A
4:50 PM55 °FPartly sunny.17 mph82%30.18 "HgN/A
4:20 PM55 °FPartly sunny.20 mph82%30.15 "HgN/A
3:50 PM55 °FPartly sunny.16 mph82%30.15 "HgN/A
3:20 PM55 °FPartly sunny.10 mph82%30.15 "HgN/A
2:20 PM55 °FPartly sunny.8 mph82%30.15 "HgN/A
1:50 PM55 °FSprinkles. Partly sunny.9 mph77%30.15 "HgN/A
12:50 PM55 °FPartly sunny.9 mph77%30.15 "HgN/A
12:20 PM55 °FPartly sunny.8 mph77%30.15 "HgN/A
11:20 AM55 °FPartly sunny.10 mph72%30.15 "HgN/A
10:50 AM55 °FScattered clouds.9 mph72%30.15 "HgN/A
10:20 AM54 °FScattered clouds.6 mph82%30.15 "HgN/A
Weather by CustomWeather, © 2016

See weather overviewHow to use our weather pages